Location: Lhota
(50.0887°N, 14.0116°E)
Time: 00:55:38
(UTC+00:00)

USA 234 - Pass Details

Date: 19 May 2025
Orbit: 1097 x 1111 km, 123.0° (Epoch: 19 June)

Event Time Altitude Azimuth Distance (km) Brightness Sun altitude
Rises 22:29:46 0° 67° (ENE) 3,920 6.4 -19.6°
Reaches altitude 10° 22:32:18 10° 63° (ENE) 2,963 5.8 -19.7°
Maximum altitude 22:38:36 53° 349° (N) 1,333 4.0 -19.8°
Drops below altitude 10° 22:44:55 10° 275° (W) 2,969 5.6 -19.8°
Sets 22:47:28 0° 271° (W) 3,928 6.2 -19.9°
